Location: Newark
(7.0858°N, 171.3717°E)
Time: 15:12:03
(UTC+00:00)

Courier 1B Rocket - Pass Details

Date: 01 December 2020
Orbit: 920 x 1202 km, 28.2° (Epoch: 20 January)

Event Time Altitude Azimuth Distance (km) Brightness Sun altitude
Rises 02:35:49 0° 271° (W) 3,766 8.5 46.6°
Reaches altitude 10° 02:39:26 10° 253° (WSW) 2,760 8.2 45.9°
Maximum altitude 02:43:54 19° 211° (SSW) 2,132 8.0 45.1°
Drops below altitude 10° 02:48:14 10° 168° (SSE) 2,652 7.7 44.2°
Sets 02:51:39 0° 150° (SSE) 3,569 8.0 43.6°
